Location: *
(52.2090°N, 4.1550°W)
Time: 18:31:16
(UTC+00:00)

Daily predictions for brighter satellites

Satellite Brightness Start Highest point End
(mag) Time Altitude Azimuth Time Altitude Azimuth Time Altitude Azimuth
CARTOSAT-1 4.3 21:06:41 10° SE 21:10:42 39° ENE 21:14:45 10° N
SL-8 R/B 4.2 21:07:29 10° W 21:12:03 46° SSW 21:16:37 10° ESE
Resurs 01 Rocket 3.1 21:09:51 10° SSW 21:13:56 35° W 21:18:02 10° NNW
Aureole 1 Rocket 4.2 21:13:23 10° SSW 21:18:38 75° WNW 21:25:39 10° NNE
USA 215 3.3 21:12:14 10° ENE 21:18:50 78° SSE 21:25:24 10° SW
CENTAUR R/B 4.4 21:14:04 10° WNW 21:20:19 37° N 21:27:29 10° NE
Cosmos 2219 Rocket 3.7 21:17:07 10° SE 21:20:46 18° E 21:24:26 10° ENE
Cosmos 1328 Rocket 4.2 21:17:08 10° NNW 21:21:26 57° W 21:25:41 10° S
Cosmos 1933 3.5 21:17:26 10° N 21:21:28 60° ENE 21:25:28 10° SSE
Cosmos 1825 2.9 21:18:11 10° SSE 21:21:38 35° E 21:25:06 10° NNE
Cosmos 2322 Rocket 2.2 21:15:57 10° SSW 21:21:40 84° ESE 21:27:25 10° NNE
ATLAS 5 CENTAUR R/B 4.1 21:17:55 10° NW 21:22:08 25° N 21:26:51 10° ENE
Cosmos 2084 Rocket 3.6 21:18:19 10° NW 21:22:44 73° NE 21:27:04 10° SE
Cosmos 2278 Rocket 3.5 21:20:59 10° NNW 21:26:05 32° NE 21:31:09 10° ESE
SL-16 R/B 2.4 21:22:41 10° SSW 21:28:22 81° WNW 21:34:06 10° NNE
SPOT 5 3.0 21:24:42 10° SSE 21:29:41 67° ENE 21:34:26 10° N
Cosmos 2333 Rocket 3.5 21:27:16 10° SSE 21:31:23 21° E 21:35:30 10° NE
Meteor 2-3 Rocket 4.3 21:26:55 10° SSE 21:32:18 41° E 21:37:44 10° NNE
Meteor 1-26 Rocket 4.4 21:28:02 10° N 21:33:42 64° ENE 21:39:11 10° SSE
EO 1 Del DPAF 3.2 21:30:33 10° NNE 21:34:21 69° ESE 21:38:08 10° S
SPOT 1/Viking Rocket 3.6 21:30:36 10° SSE 21:35:47 89° WSW 21:41:02 10° NNW
Cosmos 1844 Rocket 2.8 21:31:52 10° NNW 21:37:36 86° WSW 21:43:06 11° SSE
Cosmos 1500 Rocket 3.6 21:33:21 10° S 21:37:46 67° E 21:42:14 10° NNE
TIMED 4.5 21:33:55 10° SSW 21:38:17 85° ESE 21:42:41 10° NNE
Cosmos 1242 Rocket 4.2 21:35:52 10° SW 21:39:18 37° WNW 21:42:47 10° N
Cosmos 2322 4.1 21:36:33 10° S 21:41:50 43° ESE 21:47:09 10° NE
Gbstr 26 Del rocket 2.6 21:38:03 10° WSW 21:41:58 68° SSE 21:45:41 10° E
Cosmos 2263 Rocket 4.2 21:37:46 10° NW 21:42:06 23° WSW 21:46:26 10° SSW
Cosmos 2151 4.3 21:38:19 10° SW 21:42:26 43° WNW 21:46:34 10° N
Landsat 7 4.0 21:41:16 10° S 21:46:01 74° WSW 21:50:49 10° NNW
Nadezhda 4 Rocket 4.4 21:41:54 10° NNW 21:48:09 65° W 21:54:18 10° S
Cosmos 1818 3.6 21:42:55 10° NW 21:48:26 88° NE 21:53:21 13° SE
ISS -3.5 21:49:31 10° SW 21:52:43 44° SSE 21:55:55 10° E
ASTEX 1 4.1 21:49:57 10° NNE 21:54:39 40° E 21:58:38 14° SSE
Cosmos 292 Rocket 3.9 21:50:09 10° NNW 21:55:00 74° WSW 21:59:19 13° SSE
IGS 5A 3.8 21:51:15 10° S 21:55:23 65° WSW 21:59:33 10° NNW
USA 267 4.1 21:49:55 11° SSE 21:55:48 38° SW 22:01:51 10° WNW
Cosmos 1892 4.2 21:52:36 10° SW 21:56:13 38° WNW 21:59:49 10° N
Lacrosse 5 2.6 21:51:36 10° WNW 21:56:35 53° N 22:01:33 10° E
Landsat 4 4.1 21:55:14 10° NNE 21:58:48 42° E 22:01:42 14° SSE
Cosmos 2034 Rocket 4.5 21:54:19 10° SSW 22:00:32 65° WNW 22:06:51 10° N
Lacrosse 5 rocket 2.3 21:58:37 10° WNW 22:03:11 55° NNE 22:07:39 10° E
Cosmos 2237 4.2 21:59:27 10° SSW 22:05:08 80° ESE 22:10:52 10° NNE
Cosmos 1743 Rocket 4.0 22:01:06 10° SSW 22:05:26 61° WNW 22:09:46 10° N
Cosmos 1707 Rocket 3.8 22:01:33 10° N 22:05:58 60° ENE 22:09:24 16° SSE
NOSS 3-1 (C) 3.6 22:00:38 10° SSW 22:06:01 48° ESE 22:12:16 10° NE
Cosmos 1607 4.1 22:00:47 10° NW 22:06:54 69° SW 22:12:00 15° SSE
Helios 1A 4.1 22:04:15 13° ESE 22:07:21 32° ENE 22:11:05 10° N
Cosmos 1092 Rocket 4.3 22:01:18 10° NNW 22:07:31 69° W 22:13:39 10° S
IRAS Rocket 4.4 22:03:17 14° SSE 22:08:03 68° ENE 22:13:40 10° NNW
MOS 1 Rocket 3.5 22:06:30 10° NNE 22:10:52 50° E 22:14:40 14° S
Cosmos 676 Rocket 4.2 22:09:02 10° S 22:14:05 53° ESE 22:19:13 10° NNE
Terra 2.0 22:11:03 14° S 22:15:11 74° WSW 22:19:59 10° NNW
Cosmos 1782 2.8 22:13:08 10° N 22:17:12 78° ENE 22:20:04 18° SSE
SL-4 R/B 2.7 22:15:49 10° SW 22:20:22 41° SSE 22:24:50 10° E
Meteor 1-10 Rocket 4.5 22:15:01 10° N 22:20:36 60° ENE 22:24:56 17° SSE
Cosmos 1844 4.2 22:15:18 10° NW 22:20:46 54° WSW 22:25:17 15° S
Cosmos 44 Rocket 4.1 22:15:44 10° WSW 22:20:47 59° NW 22:25:44 10° NE
COSMOS 2428 3.0 22:17:56 10° S 22:23:27 50° ESE 22:28:58 10° NE
Cosmos 1408 4.2 22:22:39 10° SW 22:26:06 35° WNW 22:29:34 10° N
Cosmos 1400 Rocket 4.3 22:22:56 10° N 22:26:32 28° ENE 22:29:10 15° ESE
Cosmos 1954 Rocket 4.0 22:22:44 10° S 22:27:53 64° ESE 22:33:08 10° NNE
Cosmos 1862 4.3 22:28:01 20° SE 22:30:00 31° E 22:33:34 10° NNE
Cosmos 1805 Rocket 3.5 22:26:15 12° S 22:30:14 86° W 22:34:38 10° N
Spot 4 4.2 22:28:03 18° SE 22:31:25 55° ENE 22:36:05 10° N
Cosmos 1633 3.8 22:31:22 20° SE 22:32:45 26° E 22:35:47 10° NNE
Cosmos 1140 Rocket 3.4 22:27:54 10° SSW 22:33:05 85° ESE 22:38:20 10° NNE
Meteor 2-6 Rocket 4.2 22:28:40 10° NNW 22:34:08 80° ENE 22:38:10 19° SSE
Cosmos 1634 Rocket 4.1 22:27:55 10° SSW 22:34:11 79° WNW 22:40:26 10° N
Mayak -0.3 22:30:23 10° NNE 22:34:17 34° E 22:36:25 21° SE
Cosmos 2360 Rocket 2.7 22:28:56 10° SW 22:34:31 61° NW 22:40:07 10° NNE
NOSS 8 (A) 4.3 22:32:53 12° SSW 22:35:37 51° SE 22:38:42 10° NE
Cosmos 1606 4.1 22:33:12 10° NNW 22:36:36 32° W 22:39:46 11° SSW
Cosmos 2237 Rocket 3.2 22:34:42 19° SSE 22:37:29 28° ESE 22:42:11 10° NE
Cosmos 407 Rocket 4.0 22:32:38 10° SW 22:37:55 64° WNW 22:43:16 10° NNE
ATLAS CENTAUR R/B 1.7 22:34:18 10° NW 22:39:10 76° NE 22:42:23 19° SE
ARGOS Delta rocket 4.5 22:36:26 18° SE 22:39:20 41° ENE 22:43:41 10° N
Cosmos 2026 Rocket 4.4 22:33:29 10° NNW 22:39:26 58° W 22:44:51 13° S
Thor Agena Rocket 4.3 22:37:02 10° N 22:41:56 51° WNW 22:46:48 10° SW
Cosmos 2242 Rocket 4.2 22:37:35 10° N 22:41:58 46° ENE 22:44:45 21° SE
Helios 1B rocket 4.1 22:40:00 10° NE 22:43:08 21° E 22:44:38 17° ESE
Cosmos 614 Rocket 4.4 22:38:53 10° SW 22:43:54 63° WNW 22:48:59 10° NNE
USA 229 DEB 3.7 22:37:37 10° SW 22:44:18 88° SE 22:51:19 10° NE
USA 229 3.7 22:37:43 10° SW 22:44:23 88° SE 22:51:26 10° NE
CZ-2C R/B 4.0 22:40:50 10° N 22:45:37 37° WNW 22:50:21 10° SW
NOSS 3-1 (A) 3.4 22:41:54 10° SSW 22:47:26 59° SE 22:53:56 10° NE
Cosmos 1655 Rocket 4.0 22:41:47 10° N 22:48:05 88° W 22:52:43 19° S
Cosmos 1666 Rocket 3.6 22:47:38 19° S 22:50:52 87° E 22:55:23 10° NNE
Cosmos 1633 Rocket 3.0 22:49:21 21° S 22:52:11 75° E 22:56:32 10° NNE
Cosmos 1933 Rocket 4.4 22:51:00 22° SE 22:53:05 35° E 22:57:06 10° NNE
SeaSat 1 3.9 22:50:01 10° ENE 22:53:44 21° ESE 22:55:13 18° SE
SL-19 R/B 3.6 22:53:10 10° NNE 22:56:30 85° ESE 22:57:57 28° SSW
ALOS 2 3.4 22:54:11 20° SE 22:56:51 41° ENE 23:01:00 10° N
Cosmos 841 Rocket 4.1 22:51:58 10° NNW 22:56:59 48° ENE 23:00:38 18° SE
Cosmos 1825 4.4 22:54:11 10° WSW 22:57:16 23° WNW 23:00:21 10° NNW
COSMOS 2455 4.1 22:55:30 19° SE 22:57:45 24° ESE 23:02:24 10° ENE
BREEZE-M DEB (TANK) 2.3 22:55:36 10° W 22:58:07 58° S 23:04:41 10° ESE
NOSS 2-3 (E) 4.3 22:56:18 22° S 22:58:44 40° ESE 23:03:43 10° NE
NOSS 2-3 (D) 4.3 22:59:17 23° S 23:01:35 40° ESE 23:06:32 10° NE
USA 215 3.8 22:55:21 10° ENE 23:01:48 64° N 23:08:16 10° W
Cosmos 724 4.3 22:56:39 10° NW 23:02:46 84° SW 23:06:50 21° SE
Cosmos 1862 Rocket 3.5 22:58:55 10° NNW 23:03:17 86° WSW 23:05:42 26° S
Cosmos 1763 Rocket 3.5 22:58:20 10° NNW 23:03:33 80° ENE 23:06:50 23° SSE
Cosmos 2219 Rocket 2.2 22:58:15 10° SSW 23:03:56 88° ESE 23:09:39 10° NNE
GP-B 3.5 23:00:20 10° N 23:04:42 52° E 23:06:58 26° SSE
Cosmos 2297 4.3 22:59:50 10° NNW 23:05:22 52° NE 23:09:49 16° SE
Cosmos 2180 Rocket 4.5 23:00:44 17° S 23:05:38 89° W 23:11:49 10° N
Cosmos 2322 Rocket 4.4 23:01:37 10° W 23:06:25 27° NW 23:11:14 10° NNE
Cosmos 1943 Rocket 4.1 23:02:56 10° NNW 23:07:23 24° NE 23:11:49 10° E
Cosmos 468 Rocket 4.0 23:02:33 10° NNW 23:07:50 76° WSW 23:11:02 24° SSE
ATLAS 5 CENTAUR R/B 3.2 23:02:50 10° NW 23:08:01 45° NNE 23:13:56 10° ESE
Sich 1 3.7 23:05:43 14° SSW 23:09:19 50° WNW 23:13:30 10° N
Meteor 1-27 Rocket 3.8 23:03:27 10° NNW 23:09:22 86° ENE 23:13:13 23° SSE
Cosmos 2278 Rocket 2.4 23:04:58 10° NW 23:10:35 64° WSW 23:14:03 24° S
Cosmos 1470 Rocket 3.6 23:08:24 27° S 23:10:42 65° E 23:15:05 10° NNE
Meteor 2-13 Rocket 4.4 23:06:44 10° N 23:12:52 85° ENE 23:16:50 23° SSE
CENTAUR R/B 4.3 23:06:06 10° NW 23:12:54 39° NNE 23:20:33 10° E
Cosmos 2333 Rocket 2.3 23:09:17 10° SSW 23:15:00 82° WNW 23:20:44 10° NNE
ATLAS 3B R/B 4.1 23:12:20 10° NW 23:18:25 36° NNE 23:24:31 10° E
Gbstr 26 Del rocket 2.5 23:24:54 10° W 23:28:40 82° S 23:32:30 10° E
ISS -3.9 23:25:55 10° W 23:29:16 83° S 23:32:36 10° E
Cosmos 2266 Rocket 4.2 23:23:46 10° NNW 23:30:08 70° W 23:34:14 23° S
Cosmos 2208 Rocket 4.1 23:24:42 10° NNW 23:30:09 72° WSW 23:33:11 27° S
Cosmos 1437 4.0 23:31:30 25° ESE 23:31:50 25° E 23:34:27 10° NE
USA 238 DEB 4.3 23:26:54 10° NW 23:33:55 59° NE 23:41:08 10° ESE
USA 238 4.3 23:27:00 10° NW 23:34:01 59° NE 23:41:14 10° ESE
Cosmos 2369 Rocket 3.7 23:30:31 10° NNW 23:35:39 32° NE 23:40:45 10° ESE
Lacrosse 5 1.8 23:34:45 10° WNW 23:39:50 77° SSW 23:43:22 20° SE
Cosmos 192 4.3 23:34:53 10° NNW 23:39:52 88° ENE 23:42:30 28° SSE
Cosmos 1570 Rocket 4.4 23:35:18 10° NNW 23:40:23 52° WSW 23:43:05 26° S
Lacrosse 5 rocket 1.6 23:38:00 10° WNW 23:42:33 60° SW 23:44:38 30° SSE
Helios 1A 4.2 23:40:52 21° SW 23:42:54 33° W 23:46:42 10° NNW
ERS-2 2.5 23:42:18 31° SE 23:43:48 57° ENE 23:47:26 10° N
NOSS 2-3 (C) 3.8 23:40:23 17° SW 23:43:55 80° SE 23:49:30 10° NE
Cosmos 1812 3.4 23:48:05 10° NNW 23:51:49 45° W 23:53:19 29° SSW
Terra 4.3 23:52:14 10° WSW 23:53:47 11° W 23:55:21 10° WNW
